カタログに戻る

ECHOSTAR 18

運用中通信GEO
NORAD 41592·PAYLOAD·🇺🇸 United States

打ち上げ Jun 18, 2016 から Guiana Space Centre

Loading…

TLE

最新Source: Space-Track

元期: Sep 14, 2026, 10:05 UTC

1 41592U 16039B   26257.42042447 -.00000290  00000-0  00000-0 0  9991
2 41592   0.0179 160.8740 0001502   6.3842 276.1354  1.00271536 37516

AllMySatでECHOSTAR 18をリアルタイム追跡

Download on the App Store